KAZSAT-2

Last updated on Fri Oct 31 2025 00:02:46 GMT+0000 (Coordinated Universal Time)

1 37749U 11035B 25303.05903242 -.00000188 00000+0 00000+0 0 9994 2 37749 0.0205 289.1716 0001386 342.4493 234.8173 1.00271614 51095
UTC large
Height (km)
Speed (km/s)
/
Latitude / Longitude
Inclination (degrees)
Orbital Period (minutes)
Azimuth
Elevation
Range (km)
Doppler Factor

Next 0 passes for location: London (51.5072 / 0.1276)

Sorry there are no passes over London.